YBRMYPPD

Guest
Details From YBRM - Broome Intl
To YPPD - Port Hedland Intl
Flight Number -
Tags generated
Created
Modified
Stats Distance 252 nm / 468 km
Max Altitude 26,000 ft / 7,925 m
Waypoints 5
Social Downloads 2
Likes 0
Share VATSIM

Download

Looking for another format? Having issues loading an existing format? Contact us
Advertisement - Login to hide

Notes

Basic altitude profile: - Ascent Rate: 700ft/min - Ascent Speed: 130kts - Cruise Altitude: 8000ft - Cruise Speed: 150kts - Descent Rate: 700ft/min - Descent Speed: 170kts Options: - Use NATs: yes - Use PACOTS: yes - Use low airways: yes - Use high airways: no

Route

YBRM BRM J93 PD YPPD

ID Type Via Altitude (ft/m) Position (lat/lon) Dist (leg/tot) Name
O YBRM APT - 0 / 0 -17.94875 / 122.22723 - / 0 nm Broome Intl
BRM NDB - 100 / 30 -17.94639 / 122.23528 0 / 0 nm BROOME NDB-DME
SNAPA FIX J93 (AWY-LO) 26,000 / 7,925 -19.16667 / 120.44333 125 / 126 nm
PD VOR J93 (AWY-LO) 0 / 0 -20.37833 / 118.62278 126 / 252 nm PORT HEDLAND VOR-DME
O YPPD APT - 0 / 0 -20.37855 / 118.62943 0 / 252 nm Port Hedland Intl

Altitude Profile

Advertisement - Login to hide

Weather


0- 5 10 15 20 25 30 35+ Temperature / °C

Clouds and Precipitation
Forecast for 2019-01-19 06:00 UTC. Updated 23 minutes ago

Ground ~20,000 ft ~40,000 ft Winds

YBRM

Details ICAO YBRM (BME)
Name Broome Intl
Region Australia
Timezone Australia/Perth (UTC+8.0)
Stats Elevation 56 ft / 17 m (AMSL)
Location -17.948700° 122.227000°
Runways 1
Magnetic Variation 1.716° E

METAR

YBRM 190330Z AUTO 22007KT 180V250 9999 // NCD 34/26 Q1008 RF00.0/000.0

Decode

TAF

TAF YBRM 182303Z 1900/1924 27008KT CAVOK FM191500 25005KT 9999 SCT014 PROB30 INTER 1907/1916 VRB25G45KT 2000 TSRA BKN015 FEW060CB

Decode

Departure Runways

ID Width Length Bearing (true/mag) Surface Threshold Overrun Markings Lighting
10 148 ft / 45 m 8,325 ft / 2,537 m 105.60° / 103.89° ASPHALT 292 ft / 89 m 52 ft / 16 m APP EDGE THRESHOLD
28 148 ft / 45 m 8,325 ft / 2,537 m 285.60° / 283.88° ASPHALT 666 ft / 203 m 0 ft / 0 m APP EDGE THRESHOLD

YPPD

Details ICAO YPPD (PHE)
Name Port Hedland Intl
Region Australia
Timezone Australia/Perth (UTC+8.0)
Stats Elevation 33 ft / 10 m (AMSL)
Location -20.378600° 118.629000°
Runways 2
Magnetic Variation 1.204° E

METAR

YPPD 190330Z AUTO 35011KT 9999 // NCD 38/20 Q1008

Decode

TAF

TAF YPPD 182303Z 1900/1924 24008KT CAVOK FM190300 32014KT CAVOK FM191100 26010KT CAVOK

Decode

Destination Runways

ID Width Length Bearing (true/mag) Surface Threshold Overrun Markings Lighting
14 148 ft / 45 m 8,216 ft / 2,504 m 137.60° / 136.40° ASPHALT 0 ft / 0 m 0 ft / 0 m APP EDGE THRESHOLD
18 59 ft / 18 m 3,292 ft / 1,003 m 2.40° / 1.20° ASPHALT 0 ft / 0 m 0 ft / 0 m VISUAL EDGE THRESHOLD
32 148 ft / 45 m 8,216 ft / 2,504 m 317.60° / 316.39° ASPHALT 0 ft / 0 m 0 ft / 0 m APP EDGE THRESHOLD
36 59 ft / 18 m 3,292 ft / 1,003 m 182.40° / 181.20° ASPHALT 0 ft / 0 m 0 ft / 0 m VISUAL EDGE THRESHOLD

Popular Alternatives